Theta_e
345 347 348 346 344 344 344 345 346 346 346 347 347 345 345 347 347 347 347 345 343 342 341 341 341 339 337 335 335 337 331 336
344 345 348 346 345 343 343 343 344 344 345 345 344 344 345 345 345 346 345 344 343 342 341 340 339 337 336 335 333 336 335 337
343 344 345 346 346 345 344 345 344 343 344 343 340 341 341 343 343 344 344 342 341 341 339 337 336 336 336 335 332 333 334 336
339 342 343 345 346 344 343 344 344 344 343 342 341 338 338 342 342 342 342 340 340 339 337 336 335 330 328 331 330 333 334 335
337 340 342 343 343 344 344 344 344 343 341 341 339 338 338 338 337 339 337 339 335 334 333 331 330 329 327 325 330 331 332 334
337 338 340 342 342 342 343 343 344 343 343 340 339 337 336 338 336 338 334 332 330 329 328 328 328 329 328 325 328 329 329 331
335 337 339 340 341 342 341 341 342 343 343 341 339 337 336 336 333 336 332 329 328 326 326 325 325 325 322 327 327 328 330 330
336 336 338 340 339 338 340 340 340 341 341 341 340 338 335 336 334 334 332 329 327 326 325 323 323 321 323 326 326 329 330 327
336 336 336 337 338 338 338 339 339 338 340 339 339 337 336 335 334 334 332 331 328 326 324 323 321 318 322 323 324 326 326 326
338 338 336 336 336 336 337 338 338 338 337 338 338 337 336 335 334 333 334 331 330 328 324 321 319 315 317 321 322 322 320 320
338 337 335 335 335 335 335 336 336 336 336 337 337 337 336 335 335 335 333 332 329 329 322 321 316 315 319 321 320 319 318 317
338 338 336 336 334 335 333 334 335 334 336 336 337 337 336 335 335 333 332 332 330 328 324 321 319 315 320 319 318 318 316 314
336 337 336 336 334 334 333 332 333 333 335 335 336 337 336 336 333 331 331 331 329 327 321 317 312 315 314 313 315 317 315 313
334 337 336 337 336 336 332 331 325 324 322 323 329 334 335 334 334 330 329 324 321 322 319 314 313 316 313 312 308 310 311 312
331 334 336 337 333 324 323 323 321 319 319 318 318 323 327 328 327 327 325 323 320 318 317 317 311 313 316 313 306 306 305 308
327 327 329 325 326 327 325 327 325 321 318 315 314 315 317 318 318 320 320 320 317 316 315 316 315 311 311 312 311 309 303 300
325 325 323 322 323 324 323 319 316 314 313 312 313 312 313 313 315 318 317 317 316 315 316 316 316 313 310 308 308 308 307 303
324 323 323 320 320 320 320 319 314 312 310 310 310 309 308 309 310 311 311 312 313 314 314 314 313 313 311 310 308 306 303 303
320 322 319 321 320 321 321 319 316 315 312 312 306 305 306 307 309 309 310 312 312 312 312 313 312 311 311 309 305 305 306 304
318 318 315 315 316 314 313 314 312 311 310 308 307 306 306 307 307 308 307 308 308 309 308 307 308 307 306 305 305 304 306 306
Wind_Speed
12 12 10 11 12 11 11 12 12 12 12 12 12 12 12 12 12 11 10 9 10 9 8 7 5 8 6 4 4 3 1 2
12 12 10 9 8 12 12 11 12 12 12 11 11 11 12 11 11 11 10 10 9 8 7 5 2 4 7 4 4 5 4 4
10 13 13 11 10 9 12 12 11 10 10 10 9 5 6 8 8 10 11 9 9 8 6 3 1 5 5 3 5 2 3 2
10 13 14 14 10 9 8 8 7 7 7 7 5 5 5 5 5 9 8 8 8 7 5 3 0 3 2 3 2 3 3 2
11 11 12 14 11 9 7 5 5 5 7 7 5 4 4 3 3 3 3 7 3 4 3 2 2 2 2 2 4 3 2 2
11 11 12 12 7 9 9 8 8 7 8 9 6 4 4 5 3 5 4 3 5 3 2 2 2 1 2 2 4 3 2 2
14 13 13 12 11 9 10 11 10 9 9 10 8 7 7 6 4 5 4 4 4 4 4 3 2 0 2 5 5 4 4 2
14 16 14 14 12 12 10 9 11 11 10 9 10 7 7 6 6 7 6 5 3 4 5 4 3 2 4 4 4 4 3 3
17 17 15 15 14 10 9 10 9 9 8 10 11 10 9 10 7 6 5 5 8 5 5 4 4 3 5 4 4 4 3 5
15 14 16 15 14 10 8 8 8 7 6 7 11 10 10 9 8 7 7 5 5 5 4 3 5 4 4 4 5 4 5 6
15 15 16 16 11 9 9 10 8 7 7 8 11 12 12 10 8 7 7 6 6 6 3 4 4 6 7 6 5 5 6 5
11 12 13 13 8 7 4 5 6 6 7 8 10 10 11 10 7 6 7 6 6 6 5 3 2 6 5 5 5 4 5 5
14 13 13 12 9 9 7 8 6 5 6 7 8 10 9 10 7 7 8 8 8 7 4 5 2 4 6 5 4 2 3 5
10 12 14 13 10 7 3 4 2 2 3 2 4 8 8 9 9 8 8 5 7 8 7 3 2 5 4 4 3 1 2 3
6 9 11 11 7 7 5 5 3 2 2 2 1 3 5 7 7 7 8 8 8 10 10 11 6 3 9 6 3 3 3 2
5 6 6 5 8 7 8 5 5 2 3 3 3 3 1 3 5 5 7 6 7 7 6 7 6 9 1 2 1 7 5 4
6 8 7 6 5 3 3 3 3 3 3 5 3 1 3 4 2 3 6 5 6 9 8 8 6 6 6 4 1 3 4 5
7 9 7 6 6 6 6 6 5 4 3 3 2 1 2 4 4 3 1 4 8 8 7 9 8 8 6 6 4 4 4 4
5 7 5 5 7 6 6 6 7 6 4 2 4 2 1 2 3 4 3 1 4 2 4 5 10 10 10 7 3 3 3 4
6 5 6 5 5 5 4 4 3 3 4 4 4 3 4 4 3 4 6 5 4 3 2 4 2 3 8 6 4 3 2 4
Wind_Direction
158 172 170 160 156 154 158 161 163 159 157 156 154 151 152 155 151 150 148 145 141 140 141 136 127 107 94 74 39 37 145 95
162 167 171 169 169 157 164 164 165 164 162 162 159 160 161 162 158 158 156 153 150 148 153 149 150 97 102 102 58 56 102 119
170 170 173 173 174 171 164 168 168 167 163 164 157 160 171 168 167 167 162 163 158 158 164 168 229 64 91 85 80 111 85 80
185 177 172 176 178 174 172 177 178 172 170 169 171 160 166 163 169 172 164 163 169 163 169 176 29 81 66 65 110 112 91 98
188 182 177 174 176 174 179 180 175 176 171 169 170 166 163 152 152 168 161 167 166 164 170 180 207 107 101 88 114 105 106 96
180 183 178 183 174 182 180 181 181 184 184 175 166 159 170 178 171 173 171 170 167 174 177 215 244 193 160 200 141 130 126 112
189 182 180 179 176 181 188 192 191 186 182 182 169 177 180 173 179 185 174 178 172 177 181 187 234 267 111 137 133 124 123 120
187 191 185 177 180 179 185 190 197 195 189 184 180 179 173 193 191 196 187 176 180 174 174 178 192 148 121 117 116 127 120 103
192 189 183 183 183 184 183 188 188 194 192 182 181 183 188 178 188 183 207 201 170 167 170 156 158 136 119 110 107 97 79 80
186 185 189 183 184 174 182 181 181 186 184 182 189 192 186 186 188 199 191 178 198 191 165 169 155 155 139 137 122 115 102 97
188 183 188 184 177 170 180 179 180 179 177 185 194 197 195 194 198 199 183 186 182 189 166 163 169 171 155 139 134 137 132 114
190 183 180 174 163 166 149 170 187 181 186 194 198 207 203 197 202 188 182 198 191 179 182 181 191 147 137 119 120 137 136 136
180 170 170 167 168 169 179 189 180 188 194 189 192 205 207 203 200 189 183 195 197 200 137 166 94 124 100 69 61 97 136 130
164 169 169 181 176 170 157 146 107 125 132 160 201 201 199 203 204 200 193 167 155 165 166 155 120 172 122 92 171 99 94 131
163 165 169 176 149 115 84 84 83 120 174 152 177 210 208 199 214 192 178 171 179 178 176 180 163 207 175 144 165 173 115 17
101 103 117 107 136 147 166 187 168 169 127 105 93 50 293 215 179 178 174 182 179 179 167 170 149 171 120 36 233 131 164 144
76 82 77 100 94 138 153 114 82 90 100 125 138 116 41 26 333 214 182 183 185 166 166 169 159 168 174 147 346 36 117 138
79 87 82 85 91 92 105 135 126 125 128 153 158 80 98 112 102 79 287 156 168 167 158 155 169 148 162 162 167 144 196 143
106 122 116 133 143 148 152 155 163 166 155 182 147 135 240 139 131 140 155 204 129 144 154 176 158 162 171 172 137 138 154 118
126 106 95 75 76 71 56 96 125 133 149 150 166 177 155 159 154 149 128 128 128 138 127 115 124 155 156 144 139 159 152 157